User: anonymous
Location: Cherry Springs State Park
(41.6616°N, 77.8240°W)
Time: 05:40:23
(UTC-04:00)
Language:

Cosmos 1437 - Orbit

View from above orbital plane
View from above orbital plane
View from above satellite
View from above satellite

Ground track
Ground track

The orbit data is extracted from the following two-line orbital elements,

1 13770U 83003A   14259.76643456  .00008817  00000-0  28210-3 0  6452
2 13770 081.1641 286.9522 0011649 158.0400 253.6192 15.32213072731593
Epoch (UTC): 16 September 2014 18:23:39
Eccentricity: 0.0011649
inclination: 81.1641°
perigee height: 461 km
apogee height: 477 km
right ascension of ascending node: 286.9522°
argument of perigee: 158.0400°
revolutions per day: 15.32213072
mean anomaly at epoch: 253.6192°
orbit number at epoch: 73159

The dashed part of the orbit path shows where the satellite is in the earth's shadow,  

DLR